Regional Weather Roundup
Issued by NWS Sterling, VA

Home | Current Version | Previous Version | Text Only | Print | Product List | Glossary On
Versions: 1 2 3 4 5 6 7 8 9 10 11 12 13 14 15 16 17 18 19 20 21 22 23 24 25 26 27 28 29 30 31 32 33 34 35 36 37 38 39 40 41 42 43 44 45 46 47 48 49 50
000
ASUS41 KLWX 222111
RWRLWX

REGIONAL WEATHER ROUNDUP
NATIONAL WEATHER SERVICE BALTIMORE MD/WASHINGTON DC
500 PM EDT SUN APR 22 2018

Note: "FAIR" indicates few or no clouds below 12,000 feet
with no significant weather and/or obstructions to visibility.
 TC=TEMPERATURE CELSIUS

 * =Non NWS site. Station does not report precipitation (e.g. rain,
    snow, etc.), thunder, or fog.

DCZ001-MDZ009-015-VAZ040>042-051-053>054-222200-
WASHINGTON METRO

CITY           SKY/WX    TMP DP  RH WIND       PRES   REMARKS
WASHINGTON NAT CLOUDY    64  41  42 SE10      30.33S
DULLES         CLOUDY    64  42  44 SE9       30.31S
ANDREWS AFB    PTSUNNY   63  35  36 E14G21    30.32S
FT BELVOIR     PTSUNNY   67  41  39 E7        30.31S
QUANTICO       FAIR      65  45  48 SE18      30.32S
COLLEGE PARK*  PTSUNNY   63  36  36 SE7       30.33S
LEESBURG*      CLOUDY    66  45  45 SE7       30.31S
MANASSAS*      CLOUDY    67  43  41 SE10      30.30S
GAITHERSBURG*  FAIR      64  41  42 E7        30.33S

$$

MDZ006>007-011-014-222200-
BALTIMORE METRO

CITY           SKY/WX    TMP DP  RH WIND       PRES   REMARKS
BWI AIRPORT    PTSUNNY   64  38  38 SE9       30.33F
MD SCIENCE CTR   N/A     66  34  30 MISG      30.35F
MARTIN STATE   PTSUNNY   64  37  36 SE6       30.36F
ANNAPOLIS      FAIR      61  34  36 S14       30.34F
FORT MEADE*    FAIR      63  37  39 SE13      30.36S

$$

MDZ012-015-019>023-222200-
MARYLAND EASTERN SHORE

CITY           SKY/WX    TMP DP  RH WIND       PRES   REMARKS
OCEAN CITY     FAIR      50  37  61 SE7       30.40F
SALISBURY      FAIR      56  34  43 SE9       30.38F
BAY BRIDGE AP* FAIR      59  45  58 W5        30.35S
CAMBRIDGE*     SUNNY     63  36  36 S14       30.35F
EASTON*        MOSUNNY   66  32  28 SW8       30.38F

$$

MDZ017>025-222200-
SOUTHERN MARYLAND

CITY           SKY/WX    TMP DP  RH WIND       PRES   REMARKS
PATUXENT RIVER CLOUDY    60  44  55 SE15      30.35F
ST INIGOES     FAIR      58  38  47 SE13G20   30.35F
LEONARDTOWN*   FAIR      59  37  44 E8        30.37S

$$

MDZ003>005-222200-
NORTH CENTRAL MARYLAND

CITY           SKY/WX    TMP DP  RH WIND       PRES   REMARKS
FREDERICK*     PTSUNNY   64  30  27 CALM      30.35F
HAGERSTOWN APT FAIR      65  33  30 SE9       30.31F
WESTMINSTER*   FAIR      70  34  26 CALM      30.33S

$$

MDZ501>502-222200-
WESTERN MARYLAND

CITY           SKY/WX    TMP DP  RH WIND       PRES   REMARKS
OAKLAND*       FAIR      55  30  38 SE10      30.27S
CUMBERLAND*    FAIR      70  34  26 E8        30.31S

$$

VAZ025>031-222200-
SHENANDOAH VALLEY

CITY           SKY/WX    TMP DP  RH WIND       PRES   REMARKS
WINCHESTER*    FAIR      64  41  42 E5        30.30S
FRONT ROYAL*   FAIR      64  43  45 E12       30.27S
LURAY*         PTSUNNY   68  37  32 S7        30.26S
NEW MARKET*    FAIR      66  35  31 CALM      30.24F
STAUNTON*      FAIR      65  41  40 SE7       30.28S
WAYNESBORO*    FAIR      66  40  38 E8        30.26F

$$

WVZ021-048>050-054>055-222200-
EASTERN WEST VIRGINIA PANHANDLE

CITY           SKY/WX    TMP DP  RH WIND       PRES   REMARKS
MARTINSBURG    FAIR      65  39  38 E5        30.29F
PETERSBURG*    FAIR      67  37  32 CALM      30.24F

$$

VAZ036>039-050-222200-
CENTRAL FOOTHILLS

CITY           SKY/WX    TMP DP  RH WIND       PRES   REMARKS
CHARLOTTESVILL FAIR      69  43  38 S6        30.26F
CULPEPER*      CLOUDY    70  40  33 S6        30.29S
ORANGE*        PTSUNNY   68  41  37 CALM      30.28S
GORDONSVILLE*  FAIR      69  44  39 S7        30.27F
WARRENTON*     CLOUDY    69  38  32 SE7       30.28S

$$

VAZ055>057-222200-
NORTH AND CENTRAL PIEDMONT

CITY           SKY/WX    TMP DP  RH WIND       PRES   REMARKS
FREDERICKSBRG* FAIR      69  45  42 SE10      30.29F
STAFFORD*      FAIR      67  42  41 E13       30.33S

$$

NCZ024-NYZ072-PAZ021-071-VAZ022-071-222200-
OTHER REGIONAL OBSERVATIONS

CITY           SKY/WX    TMP DP  RH WIND       PRES   REMARKS
NEW YORK CITY  FAIR      60  21  22 S9G20     30.35S
PHILADELPHIA   FAIR      65  22  19 SW10      30.34F
PITTSBURGH     PTSUNNY   67  25  20 CALM      30.25F
ROANOKE        CLOUDY    67  43  41 SE14      30.26F
RICHMOND       CLOUDY    66  41  40 SE10      30.30F
RALEIGH        CLOUDY    68  41  37 VRB6      30.29F

$$

ANZ530>537-222200-
MARINE OBSERVATIONS

STATION/POSITION TIME  TEMP    WIND        PRES
                       AIR SEA DIR/SP/G
                 (UTC) (F)     (DEG/KT/KT) (MB)
THOMAS PT LIGHT  2100   56 54  190/  7/  8 1028.7F
BALT KEY BRIDGE  2048   60     120/  8/  9 1027.6F
COVE POINT       2048   54     190/ 12/ 15 1028.5F
LEWISETTA        2048   58 56  160/ 13/ 15 1027.9F
SOLOMONS ISLAND  2048   57 54  150/ 12/ 15 1027.6F
PINEY POINT      2048          150/ 14/ 16   N/A

$$




USA.gov is the U.S. government's official web portal to all federal, state and local government web resources and services.